Temp
20 19 19 19 19 20 20 19 19 19 19 18 18 18 18 18 18 18 18 18 18 18 18 18 17 17 17 17 17 16 16 16 16 17 17 17 17 17 17 17 17 17 17 17 17 17 17 17 17 17 17 17 17 17 17 17 17 17 17 17 17 17 17
20 20 19 19 20 20 19 19 20 19 19 19 18 18 18 18 18 18 18 18 18 18 17 17 17 17 17 17 17 16 16 17 17 17 17 18 18 18 17 17 17 17 17 17 16 16 16 16 16 16 16 16 16 16 17 17 17 17 17 17 17 17 17
20 19 19 20 20 20 20 20 20 20 19 19 19 18 18 18 18 18 18 17 17 17 17 17 17 17 17 17 17 16 16 17 17 17 18 18 18 17 17 17 17 16 16 16 16 16 16 15 15 15 16 16 16 16 16 16 16 16 16 16 17 17 17
20 20 20 20 20 20 20 20 20 20 19 19 19 19 19 18 18 18 17 17 17 17 17 17 17 16 16 16 16 16 16 17 17 17 17 17 17 17 16 16 15 15 15 15 15 15 15 15 15 15 15 15 15 16 16 16 16 16 16 16 16 16 16
19 19 19 20 20 20 20 20 20 20 20 20 19 19 19 18 18 18 17 17 17 17 17 17 17 16 16 16 16 16 16 17 17 17 17 17 16 16 15 15 15 14 14 14 14 14 15 15 15 15 15 15 16 16 16 16 16 16 16 16 16 16 16
19 20 20 20 20 20 20 21 20 20 21 20 20 19 19 18 18 18 18 17 17 17 17 17 17 16 16 16 16 16 17 17 17 17 17 17 16 15 15 15 15 14 14 14 14 14 14 14 15 15 15 15 15 16 16 16 16 16 16 16 16 16 16
20 20 20 20 20 20 21 21 21 21 21 20 19 19 19 19 18 18 18 18 18 17 17 17 17 16 16 16 16 17 17 17 17 17 17 17 16 16 15 15 15 14 14 14 14 14 14 14 14 14 14 14 15 15 15 15 16 16 16 16 16 16 16
21 21 21 21 21 21 21 21 21 21 21 20 19 19 19 19 19 19 18 18 18 18 18 17 17 17 16 16 17 17 17 17 17 17 16 16 16 15 15 15 14 14 14 14 14 14 14 14 14 14 14 14 14 14 14 14 15 15 15 15 16 16 16
21 21 21 21 21 21 21 21 21 21 21 20 20 19 19 19 19 19 19 19 18 18 18 18 17 17 16 16 17 17 17 17 17 16 16 16 15 15 15 14 14 14 14 14 14 14 14 14 15 15 14 14 14 14 14 14 14 15 15 15 15 15 16
21 21 21 21 21 21 21 22 21 21 21 20 20 20 20 20 20 19 19 19 19 18 18 18 17 17 16 16 16 17 17 17 16 16 16 15 15 15 15 14 14 14 14 14 14 14 15 15 15 15 15 15 14 14 15 15 15 15 15 15 15 15 15
21 21 21 21 21 21 22 22 21 21 21 21 20 20 20 20 20 20 19 19 19 18 18 18 17 17 16 16 17 17 17 17 16 16 16 15 15 15 15 15 14 14 14 14 14 14 15 15 15 15 15 15 14 14 14 15 15 15 15 15 15 15 15
21 21 21 21 21 21 22 22 22 21 21 21 20 20 20 20 20 20 19 19 18 18 18 18 17 17 17 17 17 17 17 17 16 16 16 15 15 15 15 14 14 14 14 14 14 14 15 15 15 15 15 15 14 14 14 14 15 15 15 15 15 15 15
21 21 21 21 21 21 22 22 22 21 21 21 20 20 20 20 20 20 19 19 18 18 18 18 17 17 17 17 17 17 17 16 16 16 16 16 15 15 15 14 14 14 14 14 14 14 15 15 15 15 15 15 14 14 14 14 14 15 15 15 15 15 15
21 21 21 21 21 21 22 22 22 21 21 21 20 20 19 20 20 20 19 19 18 18 18 18 18 18 17 17 17 16 16 16 16 16 16 16 15 15 15 15 14 14 14 14 14 14 14 15 15 15 14 14 14 14 14 14 14 15 15 15 15 15 15
20 20 21 21 21 22 22 22 22 21 21 21 20 20 20 20 20 20 19 19 18 18 18 18 18 18 17 17 16 16 16 16 16 16 16 16 15 15 15 15 14 14 14 14 14 14 14 14 14 14 14 14 14 14 14 14 14 14 14 15 15 15 15
21 21 21 22 22 22 22 22 22 21 21 21 20 20 20 20 20 20 19 19 18 18 18 18 18 17 17 16 16 16 16 16 16 16 16 15 15 15 15 15 14 14 14 14 14 14 14 14 14 14 14 14 14 14 14 14 14 14 14 14 14 14 14
21 21 22 22 22 22 22 22 22 21 21 21 20 20 20 20 20 19 19 19 18 18 18 18 18 17 17 16 16 16 16 16 16 16 16 15 15 15 15 15 14 14 14 14 14 14 14 14 14 13 13 13 13 13 13 14 14 14 14 14 14 14 14
22 22 23 22 22 22 22 22 22 21 21 21 21 20 20 20 20 19 19 19 18 18 18 18 18 17 17 16 16 16 16 16 16 16 16 16 15 15 15 15 14 14 14 14 14 14 14 14 14 13 13 13 13 13 13 13 13 14 14 14 14 14 14
24 24 24 23 23 23 23 23 22 22 21 21 21 21 20 20 20 19 19 18 18 18 18 18 18 17 17 17 16 16 16 16 16 16 16 15 15 15 15 14 15 14 14 14 14 14 14 14 14 13 13 13 13 13 13 13 13 13 14 14 14 14 14
24 24 24 24 23 24 23 23 22 22 21 21 21 21 20 20 20 19 19 18 18 18 18 18 18 17 17 16 16 16 16 15 15 15 15 15 15 15 14 14 14 14 14 14 14 14 14 14 13 13 13 13 13 13 13 13 13 13 13 13 14 14 14
24 24 24 24 24 24 23 23 23 22 21 21 21 20 20 20 19 19 18 18 18 18 18 18 17 17 16 16 16 16 15 15 15 15 14 14 14 15 15 14 14 14 14 14 14 14 13 13 13 13 13 13 13 13 13 13 13 13 13 13 13 13 13
25 24 24 24 24 24 23 23 23 22 21 21 21 20 20 19 19 18 18 18 18 18 18 18 17 16 16 16 16 16 15 15 14 14 14 14 14 14 14 14 14 14 14 14 14 14 13 13 13 12 12 12 12 12 12 13 13 13 12 13 13 13 13
24 24 24 23 23 23 23 23 22 22 21 21 20 20 19 19 18 18 18 18 18 18 18 17 16 16 16 16 16 16 15 15 14 14 14 14 14 14 14 14 14 14 14 14 13 13 13 13 12 12 12 12 12 12 12 12 13 13 12 12 12 13 13
23 23 23 23 22 22 22 22 22 21 21 20 20 19 19 18 18 18 18 18 18 18 17 17 16 16 16 16 16 15 15 14 14 14 14 14 14 14 14 14 14 14 14 13 13 13 13 12 12 12 12 12 12 12 12 12 13 13 12 12 12 12 12
23 23 23 22 22 22 22 22 21 21 20 20 19 19 18 18 18 18 18 18 17 17 16 16 16 16 16 16 15 15 14 14 14 14 14 14 14 14 14 14 14 13 13 12 12 12 12 12 12 12 12 12 12 12 12 12 13 13 13 13 12 12 12
23 23 22 22 22 21 21 21 21 20 20 19 19 18 18 18 18 18 18 17 17 16 16 16 16 15 15 15 15 14 14 14 14 14 14 14 14 14 14 14 13 13 13 12 12 12 12 12 12 12 12 12 12 12 13 13 13 13 13 13 12 12 12
22 22 21 21 21 21 21 20 20 20 19 18 18 18 18 18 18 17 17 16 16 16 15 15 15 15 15 15 14 14 14 14 14 14 14 14 14 13 13 13 13 12 12 12 12 12 12 12 12 12 12 13 13 13 13 13 12 12 12 12 12 12 12
21 21 20 20 20 20 20 19 19 19 18 18 18 18 18 18 17 17 16 16 16 15 15 15 15 15 15 14 14 14 14 14 14 14 14 14 13 13 13 12 12 12 12 12 12 11 12 12 12 12 13 13 13 13 13 12 12 12 12 12 12 12 12
21 21 20 20 19 19 19 19 19 18 18 18 18 18 18 17 17 16 16 16 15 15 15 15 15 15 14 14 14 14 14 14 14 14 13 13 12 12 12 12 12 11 11 11 11 11 12 12 12 12 13 13 13 13 12 12 12 12 12 12 12 12 12
20 20 20 19 19 19 19 19 18 18 18 18 18 17 17 17 16 16 15 15 15 15 15 15 14 14 14 14 14 14 14 14 14 13 13 12 12 12 12 11 11 12 12 12 12 12 12 12 12 12 12 12 12 12 12 12 12 12 12 12 12 11 11
20 19 19 19 19 18 18 18 18 18 18 18 17 17 17 16 16 16 15 15 15 15 15 14 14 14 14 13 13 13 13 13 13 13 12 12 12 12 12 12 12 12 12 12 12 11 11 11 11 11 11 11 11 11 11 11 11 11 11 11 11 11 11
19 19 19 19 19 18 18 18 18 18 18 17 17 16 16 16 16 15 15 15 15 14 14 14 14 13 13 13 13 13 13 13 13 12 12 12 12 12 12 12 11 11 11 11 11 10 10 10 10 10 10 10 10 11 11 11 11 11 11 11 11 11 11
19 19 19 18 18 18 18 18 18 18 17 17 16 16 16 15 15 15 15 14 14 14 14 14 13 13 13 13 13 13 13 12 12 12 12 12 13 12 12 12 11 10 10 10 10 10 10 10 10 10 10 10 10 10 10 10 10 10 10 10 10 10 10
19 19 18 18 18 18 18 18 17 17 17 16 16 16 15 15 14 14 14 14 14 14 14 13 13 13 13 13 13 13 12 12 12 12 12 12 12 12 12 11 11 10 10 9 10 10 10 10 10 10 10 10 10 10 10 10 10 10 10 10 10 10 10
19 18 18 18 18 17 17 17 17 16 16 16 15 15 14 14 14 14 14 14 14 14 13 13 13 13 13 13 12 12 12 12 12 12 12 12 12 12 12 11 11 10 10 10 10 10 10 10 10 10 10 9 9 9 9 9 9 9 9 9 9 9 10
18 18 18 17 17 17 17 16 16 16 15 15 14 14 14 14 14 14 14 14 13 13 13 13 13 13 12 12 12 12 12 12 12 12 11 11 11 11 11 11 11 10 10 10 10 10 10 10 10 10 9 9 9 9 9 9 9 9 9 9 9 9 9
18 18 17 17 17 16 16 16 16 15 15 14 14 14 14 13 14 14 14 13 13 13 13 13 13 12 12 12 12 12 12 11 11 11 11 11 11 11 11 11 11 10 10 10 10 10 10 10 10 10 9 9 9 9 9 9 9 9 9 9 9 9 9
18 17 17 16 16 16 16 16 16 15 15 14 14 13 13 13 13 13 13 13 13 13 13 13 12 12 12 12 12 12 11 11 11 11 11 11 11 10 10 10 10 10 10 10 10 10 10 10 10 10 9 9 9 9 8 8 8 8 8 8 8 8 9
Height
1512 1514 1516 1517 1518 1519 1520 1520 1521 1522 1524 1525 1526 1527 1528 1529 1530 1530 1531 1532 1532 1533 1533 1533 1533 1534 1534 1534 1534 1534 1534 1534 1534 1533 1533 1532 1532 1531 1531 1531 1530 1530 1529 1529 1529 1528 1528 1528 1528 1528 1528 1528 1528 1528 1529 1529 1528 1528 1528 1528 1527 1528 1527
1510 1512 1514 1516 1517 1518 1519 1520 1521 1522 1523 1524 1525 1526 1527 1528 1529 1530 1531 1532 1532 1533 1533 1533 1533 1533 1534 1534 1534 1534 1534 1534 1533 1533 1532 1532 1532 1531 1531 1530 1530 1529 1529 1528 1528 1527 1527 1527 1527 1527 1526 1526 1526 1526 1527 1527 1527 1527 1527 1526 1526 1526 1526
1509 1511 1513 1515 1516 1517 1518 1519 1521 1522 1523 1524 1525 1526 1527 1528 1529 1530 1530 1531 1532 1532 1533 1533 1533 1533 1533 1534 1534 1534 1533 1533 1533 1532 1532 1531 1531 1530 1530 1530 1529 1528 1528 1527 1527 1526 1526 1526 1525 1525 1525 1524 1524 1524 1524 1525 1525 1525 1525 1525 1524 1524 1524
1508 1510 1512 1514 1515 1517 1518 1519 1521 1522 1522 1524 1524 1525 1527 1527 1528 1529 1530 1531 1531 1532 1532 1533 1533 1533 1533 1533 1533 1533 1533 1532 1532 1531 1531 1530 1530 1530 1529 1529 1528 1528 1527 1526 1526 1525 1525 1524 1524 1523 1523 1522 1522 1522 1522 1522 1522 1523 1522 1522 1522 1522 1522
1508 1509 1512 1513 1514 1516 1517 1518 1520 1521 1522 1523 1524 1525 1526 1527 1528 1529 1530 1530 1531 1532 1532 1532 1533 1532 1533 1533 1532 1532 1532 1531 1531 1530 1530 1529 1529 1529 1528 1528 1527 1527 1526 1525 1525 1524 1523 1523 1522 1521 1521 1520 1520 1520 1520 1520 1520 1520 1520 1520 1520 1520 1520
1506 1508 1510 1511 1513 1515 1516 1518 1520 1520 1522 1522 1523 1525 1525 1527 1528 1528 1530 1530 1531 1532 1532 1532 1532 1532 1532 1532 1532 1531 1531 1531 1530 1530 1529 1529 1528 1528 1527 1527 1526 1525 1525 1524 1523 1522 1521 1521 1520 1520 1519 1519 1518 1518 1517 1517 1517 1517 1517 1517 1517 1517 1517
1504 1506 1508 1510 1512 1514 1516 1518 1519 1520 1521 1522 1523 1525 1525 1526 1528 1528 1529 1530 1530 1531 1531 1532 1532 1531 1531 1531 1531 1531 1530 1530 1530 1529 1529 1528 1527 1527 1526 1525 1525 1524 1523 1522 1522 1521 1520 1519 1519 1518 1517 1517 1516 1516 1515 1515 1515 1515 1515 1515 1515 1515 1515
1502 1504 1506 1508 1511 1513 1515 1517 1518 1519 1520 1522 1523 1524 1525 1526 1527 1528 1529 1529 1530 1531 1531 1531 1531 1531 1531 1530 1530 1530 1529 1529 1529 1528 1528 1527 1526 1526 1525 1524 1524 1523 1522 1521 1521 1520 1519 1518 1517 1516 1516 1515 1515 1514 1513 1513 1513 1512 1512 1512 1512 1512 1512
1501 1503 1505 1508 1510 1512 1515 1516 1518 1519 1520 1522 1522 1523 1525 1525 1526 1527 1528 1529 1530 1530 1531 1531 1530 1530 1530 1530 1529 1529 1528 1528 1528 1527 1526 1526 1525 1524 1524 1523 1522 1522 1521 1520 1519 1518 1517 1516 1515 1515 1514 1513 1513 1512 1512 1511 1511 1510 1510 1510 1510 1510 1510
1500 1502 1504 1507 1509 1512 1514 1515 1517 1518 1519 1521 1522 1523 1524 1525 1526 1527 1527 1528 1529 1529 1530 1530 1530 1529 1529 1529 1528 1528 1528 1527 1527 1526 1525 1525 1524 1523 1523 1522 1521 1521 1520 1519 1518 1517 1516 1515 1514 1513 1512 1511 1511 1510 1510 1509 1508 1508 1508 1508 1508 1507 1507
1499 1502 1504 1506 1509 1511 1513 1514 1515 1517 1518 1520 1521 1522 1523 1524 1525 1526 1527 1528 1528 1529 1529 1529 1529 1529 1528 1528 1527 1527 1527 1526 1526 1525 1524 1524 1523 1522 1522 1521 1520 1520 1519 1518 1516 1515 1514 1513 1512 1511 1510 1509 1509 1508 1507 1507 1506 1506 1506 1505 1505 1505 1505
1498 1501 1503 1505 1507 1509 1511 1512 1514 1516 1517 1519 1520 1521 1523 1524 1525 1526 1526 1527 1528 1528 1529 1528 1528 1528 1527 1527 1527 1526 1526 1525 1525 1524 1523 1523 1522 1521 1521 1520 1519 1518 1517 1516 1515 1514 1512 1511 1510 1509 1508 1507 1506 1506 1505 1505 1504 1503 1503 1503 1503 1502 1502
1497 1499 1501 1503 1505 1508 1510 1511 1513 1515 1516 1518 1519 1521 1522 1523 1524 1525 1526 1526 1527 1528 1528 1527 1527 1527 1527 1527 1526 1526 1525 1524 1524 1523 1522 1522 1521 1520 1519 1519 1518 1517 1516 1515 1513 1512 1511 1509 1508 1507 1506 1505 1504 1504 1503 1502 1502 1501 1501 1501 1500 1500 1499
1496 1498 1501 1503 1504 1506 1508 1510 1512 1513 1515 1517 1519 1520 1521 1523 1524 1525 1525 1526 1527 1527 1527 1527 1527 1527 1526 1526 1525 1525 1524 1523 1523 1522 1521 1520 1519 1519 1518 1517 1516 1515 1514 1513 1511 1510 1509 1507 1506 1505 1504 1503 1502 1501 1501 1500 1500 1499 1499 1498 1498 1497 1497
1495 1497 1499 1500 1502 1504 1506 1508 1510 1512 1514 1516 1518 1519 1520 1522 1523 1524 1525 1525 1526 1526 1526 1527 1526 1526 1526 1525 1524 1524 1523 1522 1521 1520 1520 1519 1518 1517 1516 1516 1515 1514 1513 1511 1510 1508 1507 1505 1504 1502 1501 1500 1500 1499 1499 1498 1497 1497 1496 1496 1495 1494 1494
1493 1495 1496 1498 1500 1502 1504 1506 1508 1511 1513 1515 1517 1518 1519 1521 1522 1523 1524 1525 1525 1526 1526 1526 1526 1525 1525 1524 1523 1523 1522 1521 1520 1519 1518 1517 1517 1516 1515 1514 1513 1512 1511 1509 1508 1506 1505 1503 1502 1500 1499 1498 1497 1496 1496 1495 1495 1494 1494 1493 1492 1492 1491
1491 1493 1494 1496 1498 1500 1503 1505 1508 1510 1512 1514 1515 1517 1518 1520 1522 1523 1523 1524 1525 1525 1525 1525 1525 1524 1523 1523 1522 1521 1520 1519 1518 1518 1517 1516 1515 1514 1513 1512 1511 1510 1509 1507 1506 1504 1502 1501 1499 1498 1497 1495 1494 1494 1493 1492 1492 1492 1491 1491 1490 1489 1488
1489 1490 1492 1494 1497 1499 1501 1504 1506 1509 1511 1513 1514 1516 1518 1520 1521 1522 1523 1523 1524 1524 1524 1524 1524 1523 1522 1521 1521 1520 1519 1518 1517 1516 1515 1514 1513 1512 1511 1510 1509 1508 1506 1504 1503 1501 1500 1499 1497 1496 1495 1493 1492 1491 1490 1490 1489 1489 1489 1488 1487 1486 1485
1487 1488 1490 1493 1495 1497 1500 1502 1504 1507 1509 1512 1514 1515 1517 1519 1520 1521 1522 1523 1523 1523 1523 1523 1522 1522 1521 1520 1519 1518 1517 1516 1515 1514 1513 1512 1511 1510 1509 1508 1506 1505 1504 1502 1500 1499 1497 1496 1495 1493 1492 1491 1490 1489 1488 1488 1487 1486 1486 1485 1484 1483 1482
1486 1487 1489 1492 1494 1496 1498 1501 1503 1506 1509 1511 1513 1514 1516 1518 1520 1521 1521 1522 1522 1522 1522 1522 1521 1520 1520 1519 1518 1517 1515 1514 1513 1512 1511 1510 1509 1508 1506 1505 1504 1502 1501 1500 1498 1497 1495 1494 1492 1491 1490 1489 1488 1487 1486 1485 1485 1484 1483 1482 1481 1480 1479
1485 1487 1488 1490 1493 1495 1497 1500 1503 1506 1508 1510 1512 1514 1516 1518 1519 1520 1520 1521 1521 1521 1521 1520 1520 1519 1518 1517 1516 1515 1514 1512 1511 1510 1509 1508 1507 1505 1504 1503 1501 1500 1499 1497 1496 1494 1493 1491 1490 1489 1488 1487 1486 1484 1483 1483 1482 1481 1480 1479 1478 1477 1476
1484 1486 1488 1489 1492 1494 1497 1499 1502 1505 1507 1509 1511 1514 1515 1517 1518 1519 1520 1520 1520 1520 1519 1519 1518 1517 1516 1515 1514 1513 1512 1510 1509 1508 1507 1506 1504 1503 1502 1500 1499 1497 1496 1494 1493 1491 1490 1489 1487 1486 1485 1484 1483 1481 1480 1479 1479 1478 1477 1476 1475 1474 1473
1484 1486 1488 1490 1492 1495 1497 1500 1502 1504 1507 1509 1511 1513 1515 1516 1517 1518 1519 1519 1519 1518 1518 1517 1516 1515 1515 1514 1512 1511 1510 1509 1507 1506 1505 1503 1502 1501 1499 1498 1496 1495 1493 1491 1490 1488 1487 1486 1484 1483 1482 1481 1480 1478 1476 1475 1475 1475 1474 1473 1472 1471 1470
1485 1487 1489 1490 1493 1495 1497 1500 1502 1504 1507 1509 1511 1513 1514 1516 1517 1517 1518 1518 1517 1517 1516 1515 1515 1514 1513 1512 1511 1509 1508 1507 1505 1504 1503 1501 1500 1499 1497 1495 1494 1492 1490 1489 1487 1485 1484 1483 1481 1480 1479 1478 1476 1475 1473 1472 1471 1471 1470 1469 1469 1467 1466
1485 1487 1489 1491 1493 1495 1497 1500 1502 1504 1507 1509 1511 1512 1514 1515 1516 1516 1516 1516 1515 1515 1514 1514 1513 1512 1511 1510 1509 1507 1506 1505 1504 1502 1501 1500 1498 1497 1495 1493 1491 1489 1487 1486 1484 1482 1481 1480 1478 1477 1476 1475 1473 1472 1471 1469 1468 1468 1467 1466 1465 1464 1462
1486 1488 1490 1491 1494 1496 1498 1500 1502 1504 1507 1509 1510 1512 1513 1514 1514 1514 1515 1514 1514 1513 1513 1512 1512 1510 1509 1508 1507 1506 1504 1503 1502 1501 1499 1498 1496 1494 1492 1490 1488 1486 1485 1483 1482 1480 1479 1477 1476 1474 1473 1471 1470 1468 1467 1466 1464 1464 1463 1462 1461 1460 1458
1487 1489 1491 1492 1494 1496 1499 1501 1503 1505 1507 1509 1510 1511 1512 1513 1513 1513 1513 1512 1512 1512 1511 1510 1509 1508 1507 1506 1505 1504 1503 1501 1500 1499 1497 1496 1493 1491 1490 1488 1486 1484 1482 1481 1479 1477 1476 1474 1473 1471 1469 1468 1466 1465 1463 1462 1460 1459 1459 1458 1457 1456 1454
1488 1489 1492 1493 1495 1497 1499 1501 1503 1505 1507 1508 1510 1511 1511 1511 1511 1511 1511 1511 1510 1510 1509 1508 1508 1506 1505 1504 1503 1502 1501 1500 1499 1497 1495 1493 1491 1489 1487 1486 1484 1482 1480 1479 1477 1475 1473 1471 1469 1467 1465 1464 1462 1461 1459 1458 1457 1456 1454 1453 1452 1451 1450
1489 1491 1493 1494 1496 1498 1500 1502 1504 1505 1507 1508 1509 1510 1510 1510 1510 1509 1509 1509 1509 1508 1508 1507 1506 1505 1504 1503 1501 1500 1499 1498 1496 1495 1493 1491 1489 1487 1485 1483 1482 1480 1478 1476 1474 1472 1469 1467 1465 1463 1461 1460 1458 1457 1456 1455 1453 1452 1451 1450 1449 1448 1447
1491 1493 1494 1496 1498 1500 1501 1503 1504 1506 1507 1508 1508 1508 1508 1508 1508 1508 1508 1508 1507 1507 1506 1505 1504 1503 1502 1501 1500 1499 1498 1496 1495 1493 1491 1489 1487 1485 1483 1481 1479 1477 1475 1473 1471 1468 1466 1464 1462 1460 1458 1456 1454 1453 1452 1451 1450 1448 1447 1446 1445 1444 1443
1493 1495 1496 1498 1499 1501 1502 1504 1505 1506 1507 1507 1507 1507 1507 1507 1507 1507 1507 1506 1506 1505 1504 1503 1502 1501 1501 1500 1498 1497 1496 1494 1493 1491 1489 1487 1485 1483 1480 1478 1476 1473 1471 1469 1467 1465 1463 1461 1459 1457 1455 1453 1451 1449 1448 1447 1446 1445 1444 1443 1442 1440 1439
1495 1496 1498 1499 1500 1502 1503 1504 1504 1505 1505 1506 1506 1506 1506 1506 1506 1506 1505 1505 1504 1503 1503 1502 1501 1500 1499 1498 1497 1495 1494 1492 1490 1488 1487 1485 1483 1480 1478 1475 1473 1470 1468 1466 1464 1462 1460 1459 1457 1455 1453 1451 1448 1446 1445 1443 1442 1441 1440 1439 1438 1436 1435
1497 1498 1499 1500 1501 1502 1503 1503 1504 1504 1504 1505 1505 1505 1505 1505 1505 1505 1504 1503 1503 1502 1502 1501 1500 1499 1498 1496 1495 1493 1492 1490 1488 1486 1484 1482 1480 1477 1475 1473 1470 1468 1465 1464 1462 1460 1459 1457 1455 1453 1451 1448 1446 1444 1442 1440 1438 1437 1436 1435 1434 1432 1431
1498 1498 1500 1500 1501 1502 1502 1502 1503 1503 1503 1504 1504 1504 1504 1504 1504 1504 1503 1502 1502 1501 1501 1500 1499 1498 1496 1495 1493 1491 1490 1488 1486 1483 1481 1479 1477 1474 1472 1470 1468 1466 1464 1463 1461 1459 1457 1455 1453 1451 1449 1446 1444 1441 1439 1437 1435 1434 1433 1432 1430 1428 1427
1498 1499 1500 1500 1501 1501 1501 1502 1502 1502 1503 1503 1503 1503 1503 1503 1503 1503 1502 1501 1501 1500 1499 1499 1497 1496 1495 1493 1491 1490 1488 1486 1483 1481 1478 1476 1474 1472 1470 1468 1466 1464 1462 1461 1459 1457 1455 1453 1451 1449 1447 1444 1442 1440 1437 1434 1432 1431 1430 1429 1427 1425 1424
1498 1499 1499 1500 1500 1500 1501 1501 1502 1502 1502 1502 1502 1503 1503 1502 1502 1502 1501 1500 1500 1499 1498 1497 1496 1495 1493 1491 1490 1488 1486 1483 1481 1479 1476 1474 1471 1469 1467 1465 1463 1462 1460 1458 1457 1456 1454 1452 1450 1448 1445 1443 1440 1438 1435 1432 1429 1427 1426 1424 1422 1421 1420
1498 1498 1499 1499 1500 1500 1500 1501 1501 1501 1502 1502 1502 1502 1502 1501 1501 1500 1500 1499 1499 1498 1497 1496 1494 1493 1491 1490 1488 1486 1484 1481 1479 1477 1474 1472 1470 1467 1464 1461 1459 1457 1456 1455 1454 1452 1451 1450 1447 1445 1443 1440 1437 1435 1432 1430 1427 1424 1422 1420 1418 1416 1415
1497 1498 1498 1499 1499 1500 1500 1500 1501 1501 1501 1501 1501 1501 1501 1501 1500 1499 1499 1498 1497 1497 1496 1494 1493 1492 1490 1488 1486 1484 1482 1480 1477 1475 1473 1470 1468 1465 1462 1459 1455 1452 1451 1451 1450 1449 1448 1446 1444 1442 1440 1437 1435 1431 1428 1426 1423 1421 1418 1415 1413 1411 1409
Wind_Speed
22 19 19 21 19 15 12 9 7 6 6 5 4 3 3 5 9 10 10 10 8 7 5 3 2 2 3 4 4 5 6 7 8 9 11 12 12 13 14 14 14 14 15 15 15 14 12 11 11 12 13 13 12 12 12 11 12 11 12 13 12 11 10
23 20 21 22 19 16 12 9 7 6 6 5 4 4 3 6 9 8 8 8 8 7 6 5 3 3 3 3 5 6 8 9 10 11 11 11 12 12 13 13 14 14 15 15 14 13 12 12 12 13 14 15 15 15 14 14 14 13 13 14 14 14 13
23 22 23 22 19 16 12 9 8 7 7 6 5 6 6 8 9 7 6 5 5 5 5 5 5 4 4 5 6 8 10 11 11 11 11 11 11 12 12 12 12 13 13 14 13 13 12 12 13 14 15 16 16 16 17 16 17 16 16 16 17 16 15
24 23 23 22 19 16 12 10 9 9 8 6 6 7 9 9 8 6 5 3 2 3 4 5 4 4 4 5 7 10 12 12 12 12 11 11 11 10 10 10 11 12 12 13 13 13 13 13 14 15 16 17 18 18 18 18 18 18 19 19 19 18 17
24 24 24 23 20 18 15 12 11 10 9 7 8 8 9 8 7 5 4 2 0 2 4 4 4 4 4 6 8 11 12 12 12 12 11 11 10 10 10 10 11 12 12 13 14 14 14 14 15 16 17 18 19 20 19 19 19 18 19 19 20 19 18
25 26 26 24 22 20 16 14 12 11 9 9 9 9 8 7 6 5 4 3 2 3 5 6 6 6 6 8 10 12 12 12 12 11 12 12 11 10 10 11 12 12 13 13 14 14 14 14 15 15 16 16 17 18 18 18 17 17 18 18 19 20 20
27 28 27 26 24 21 18 15 13 12 10 10 10 9 8 6 5 4 4 3 3 4 5 7 7 7 8 9 10 11 11 11 11 11 12 12 12 11 11 12 12 12 12 13 13 14 14 14 15 15 15 16 16 16 16 15 15 15 15 17 18 20 21
28 28 28 27 26 23 19 17 15 14 12 12 12 10 8 7 5 5 4 4 4 4 5 7 7 7 7 8 9 10 10 11 11 11 12 12 12 12 12 12 12 12 12 12 13 14 15 15 15 15 15 15 15 15 15 15 14 13 14 15 16 18 20
28 28 28 28 27 25 21 18 16 15 14 13 13 11 9 7 5 5 5 5 4 4 6 7 6 5 6 8 9 10 10 11 11 12 12 12 11 11 11 11 12 12 13 13 15 16 16 16 16 16 16 16 15 15 15 15 14 14 14 14 14 16 17
29 29 28 28 28 26 22 18 16 17 16 14 13 12 10 7 6 6 6 6 5 6 6 7 7 6 7 9 9 9 10 11 12 12 12 12 11 10 10 11 12 13 15 16 17 18 18 18 17 16 16 16 16 16 15 15 15 15 15 15 15 15 16
29 29 29 29 29 27 23 20 19 19 19 17 14 13 11 8 7 6 6 6 6 7 6 7 8 8 8 8 8 9 10 12 13 13 12 12 10 9 10 11 13 15 16 18 19 20 20 19 18 17 17 17 17 17 16 16 15 16 16 16 16 16 16
28 29 29 30 30 29 26 22 20 21 21 19 16 14 12 9 7 6 5 6 6 7 6 7 9 9 9 8 9 10 12 14 14 13 12 11 9 9 11 12 14 16 18 20 21 21 21 21 20 19 18 17 17 17 17 16 16 16 16 16 17 17 17
29 29 30 30 30 30 28 24 22 23 22 20 18 16 14 11 8 6 6 6 7 7 6 7 9 10 9 9 10 12 14 15 14 13 12 11 9 10 12 14 16 18 20 22 22 23 23 22 22 20 18 18 17 17 17 17 17 17 17 17 17 18 18
27 28 29 30 31 31 30 27 25 24 24 21 19 18 15 12 10 8 7 8 9 8 6 7 10 11 10 11 12 14 15 15 14 12 12 11 10 12 14 16 17 19 21 23 23 23 24 24 24 22 19 18 17 17 17 18 18 17 17 17 18 18 19
27 29 30 32 32 33 32 30 27 26 25 22 20 19 17 14 12 10 8 9 10 9 6 7 10 11 11 12 14 15 16 14 13 12 13 12 12 13 15 17 18 20 22 23 24 24 24 25 25 23 20 18 17 17 17 18 18 17 17 17 18 18 19
29 30 32 33 34 34 33 32 29 26 25 24 22 21 19 16 14 12 9 10 11 8 6 8 11 12 12 13 15 16 15 14 13 13 14 14 15 15 17 18 19 22 23 24 24 24 24 25 25 22 20 18 17 17 17 17 17 17 17 17 17 18 19
30 32 33 34 34 34 33 33 30 27 26 25 22 21 19 17 15 13 11 12 11 8 7 9 12 14 13 14 15 15 14 14 15 16 16 16 16 17 18 19 21 23 24 24 25 25 25 25 24 22 19 17 17 17 17 17 17 17 17 16 17 18 19
31 33 33 34 34 34 33 33 31 29 27 24 22 21 19 18 16 14 12 12 11 8 8 10 13 14 14 15 15 14 14 15 17 17 17 17 17 17 19 20 22 23 24 25 26 26 27 26 24 22 19 18 18 17 17 18 17 17 17 17 17 18 19
31 32 33 33 33 33 33 32 31 29 27 23 21 19 18 18 16 14 13 12 10 9 9 10 11 13 15 15 15 16 17 18 19 19 18 18 17 18 19 21 23 24 25 26 27 28 28 27 25 23 21 20 20 20 20 20 19 18 17 17 17 18 19
30 31 31 32 32 31 31 31 30 28 25 22 20 19 18 17 15 13 13 11 10 9 10 10 11 14 15 16 16 17 19 20 20 20 19 18 19 20 21 22 23 24 25 27 28 28 28 27 25 23 22 21 21 21 21 21 21 20 19 19 19 19 20
30 30 30 30 30 30 30 29 28 27 25 22 20 18 17 16 15 14 12 10 9 11 11 11 13 14 15 16 18 19 20 21 20 19 19 19 20 21 21 22 24 25 26 27 28 28 27 26 24 23 23 22 22 22 22 22 21 20 20 21 21 21 22
26 27 27 27 27 27 27 26 24 24 23 21 18 16 16 16 15 13 11 9 10 12 12 13 14 14 15 17 19 19 19 19 19 19 19 19 20 21 22 23 25 26 27 27 28 28 27 25 24 24 24 24 24 24 24 23 22 21 22 23 23 23 23
22 23 23 23 23 24 24 22 21 21 21 18 15 15 15 16 14 11 9 10 11 11 12 13 14 14 16 18 19 18 17 17 18 19 19 20 21 22 23 24 25 26 27 28 28 28 27 26 25 26 26 27 27 26 26 26 25 24 24 25 26 27 26
19 19 19 19 19 20 19 19 19 19 18 15 14 15 15 14 11 9 9 10 10 11 13 14 14 15 17 18 17 16 16 16 17 18 19 20 22 23 24 25 26 27 27 27 28 28 27 26 26 26 27 28 28 27 27 28 27 27 27 27 28 28 27
14 14 14 14 14 15 16 17 18 18 16 13 14 15 13 11 9 9 10 10 10 12 13 14 14 16 17 17 16 15 15 15 16 18 19 21 22 24 26 27 27 27 27 26 26 26 25 26 26 27 28 29 29 29 29 30 29 28 28 28 27 28 28
9 9 9 11 13 14 15 16 17 16 14 13 13 12 11 9 9 10 10 11 12 13 13 14 15 15 16 16 15 14 15 15 17 18 20 22 24 26 27 27 27 26 26 26 25 25 25 26 26 28 29 29 30 30 30 30 30 29 28 27 27 27 27
6 6 7 10 12 12 12 13 14 13 13 12 11 10 9 8 9 10 11 12 12 13 13 14 15 15 15 15 14 14 15 16 18 20 22 24 26 27 27 26 26 25 25 25 25 25 26 27 28 30 30 29 30 30 29 29 29 28 28 27 27 26 26
8 9 9 10 10 11 13 14 13 12 12 11 9 8 8 8 9 10 11 12 12 13 14 14 14 14 14 13 13 15 16 18 20 22 24 26 26 26 26 26 25 25 25 25 26 27 29 31 31 31 30 30 29 29 29 28 27 26 26 26 26 25 25
12 12 13 14 14 14 14 14 13 11 10 9 8 7 8 8 10 11 11 12 13 13 14 13 13 13 13 13 14 16 17 20 22 24 24 25 24 25 25 25 25 25 26 27 29 31 33 33 31 29 29 29 29 29 28 27 25 25 25 25 25 24 23
15 16 16 16 15 14 11 10 9 8 7 7 7 8 9 10 11 11 12 13 13 13 12 12 12 12 13 14 15 17 20 22 23 23 24 24 24 24 25 26 27 28 29 31 32 33 33 30 28 27 28 29 30 29 27 27 26 26 26 26 25 24 23
15 16 15 14 12 10 8 6 5 5 6 7 8 9 10 11 12 12 12 12 11 11 11 11 11 12 14 15 17 19 21 22 23 24 25 25 25 26 28 29 31 32 32 32 31 29 28 26 26 27 28 28 30 30 29 28 28 28 28 27 26 25 24
14 13 11 10 9 7 5 4 5 6 7 8 9 10 10 11 11 11 10 10 10 9 10 11 12 14 16 18 19 21 22 23 24 26 26 27 27 29 30 31 31 31 30 28 27 25 24 25 25 26 26 27 29 30 30 30 30 29 29 28 27 26 26
13 11 9 7 5 3 3 4 5 6 7 7 8 8 9 9 8 8 8 8 9 9 10 12 14 16 18 19 20 21 22 24 25 27 28 29 29 30 30 30 29 28 27 26 25 24 24 25 25 25 26 28 29 29 30 31 31 30 29 27 26 27 27
11 9 7 5 4 2 3 3 4 5 5 5 5 5 5 5 6 6 7 8 9 10 12 13 15 17 18 19 20 21 23 25 27 28 29 28 28 28 29 29 28 26 25 24 25 25 24 24 24 25 26 28 29 29 30 32 32 31 29 27 27 27 28
8 6 5 4 3 2 2 2 3 4 3 3 3 3 3 4 5 6 7 8 10 11 13 14 16 17 18 19 19 21 25 28 28 28 27 27 28 29 29 29 28 25 24 24 23 22 22 22 24 25 26 26 28 28 30 31 33 32 31 30 30 30 29
5 5 4 2 1 1 1 2 2 2 2 2 2 1 2 4 5 6 7 9 10 12 13 15 16 17 18 19 20 24 28 28 27 26 27 28 29 29 29 29 27 24 23 23 22 21 21 22 23 24 25 26 27 28 28 30 32 32 32 32 32 32 31
3 3 2 1 1 1 2 2 2 2 2 2 1 1 3 5 6 7 8 9 11 12 14 15 16 17 18 20 23 26 27 26 25 26 27 26 27 28 29 30 29 27 24 23 23 23 23 23 24 26 26 27 28 28 28 29 30 31 31 31 31 32 32
1 1 1 1 2 2 2 2 2 2 2 1 1 2 4 6 6 7 9 10 12 13 14 14 16 17 19 23 25 25 24 24 26 26 25 25 26 27 28 30 32 31 29 27 25 25 25 25 28 29 29 28 28 28 28 29 30 31 31 30 31 33 34
Wind_Direction
187 192 195 194 193 192 187 177 164 157 158 155 143 127 125 128 116 101 86 79 71 59 50 48 54 40 28 31 28 16 0 348 337 328 324 322 322 323 321 319 316 314 313 313 313 313 309 301 289 281 278 277 276 275 276 279 282 283 287 293 297 303 309
188 192 195 195 196 193 186 177 171 169 167 163 150 135 140 140 126 108 89 81 72 62 52 43 38 32 28 26 17 4 351 342 334 329 326 321 319 317 314 312 310 309 310 312 314 312 306 298 290 284 281 279 278 276 275 275 277 278 280 286 290 296 300
189 193 196 196 196 192 188 184 181 179 175 167 147 131 132 136 128 114 99 83 65 53 43 34 28 20 10 2 355 345 337 334 334 334 330 324 319 314 311 311 309 309 311 312 313 311 304 295 287 283 281 280 280 279 278 276 276 278 280 282 285 289 292
192 195 196 196 195 192 193 193 189 184 177 165 146 133 131 133 131 126 121 101 51 22 8 12 10 356 346 341 337 330 327 329 333 333 330 327 323 317 314 313 310 311 310 310 309 306 301 294 288 285 282 282 281 280 280 279 278 278 280 282 284 285 286
194 196 196 197 195 194 197 198 196 185 170 165 157 145 138 139 145 145 145 155 274 330 333 334 321 312 310 312 318 322 325 329 331 331 332 332 328 321 317 313 310 311 310 310 311 308 306 301 295 292 289 287 286 284 283 281 280 278 277 278 279 280 281
194 196 199 199 196 198 200 201 200 184 167 168 164 155 151 153 159 164 171 192 245 296 312 311 301 294 293 301 312 320 325 329 328 329 332 334 331 325 320 318 317 317 316 318 319 317 316 312 308 305 302 299 297 294 292 287 282 277 274 272 272 273 274
195 198 201 202 200 200 202 204 198 180 170 175 172 167 169 169 170 176 190 220 260 290 309 307 295 288 291 300 312 322 326 327 325 327 332 334 333 329 329 329 329 327 326 326 327 325 323 320 316 313 309 307 305 303 301 297 291 282 275 272 269 269 270
199 202 203 203 203 201 204 205 195 178 174 181 180 179 181 184 188 194 211 241 261 284 311 314 302 293 298 310 322 327 329 328 327 331 336 336 334 335 337 337 337 336 334 333 333 331 329 326 321 316 312 309 306 303 301 299 298 292 284 278 274 272 271
203 205 206 206 204 203 205 205 194 181 180 185 185 184 187 195 206 214 229 241 252 280 312 330 325 315 322 330 331 330 328 328 331 337 338 337 339 342 343 343 345 345 344 342 340 337 334 329 324 320 316 312 308 304 299 295 295 293 290 286 282 278 275
204 207 209 208 205 204 205 205 198 190 190 192 189 187 190 197 206 218 233 241 253 271 298 333 342 336 334 333 330 328 328 330 335 338 337 336 341 348 351 352 353 351 348 345 342 339 336 331 326 321 317 315 312 307 302 295 290 289 290 289 286 283 279
205 207 209 209 206 204 205 205 203 199 199 198 195 193 193 197 206 216 232 243 254 266 288 328 340 334 329 327 326 327 330 332 334 335 334 334 339 350 355 354 351 350 347 344 342 339 337 333 328 322 318 316 314 311 307 301 293 288 287 287 287 285 282
204 207 209 210 208 206 206 207 206 204 204 204 202 201 199 202 209 216 235 246 251 263 289 327 334 329 325 322 322 326 328 330 330 330 329 328 336 348 350 348 346 345 344 342 339 338 336 335 330 323 317 315 314 312 310 306 300 294 289 287 286 284 283
206 209 211 212 210 208 208 208 208 207 207 206 206 207 207 211 216 223 241 252 253 264 292 325 329 326 320 317 321 325 327 328 327 325 324 323 332 341 342 340 339 339 340 339 337 336 335 334 331 324 316 312 311 310 309 307 304 299 294 290 287 285 283
206 208 210 212 211 211 211 210 209 208 208 208 209 211 213 217 224 233 248 256 256 263 289 319 325 322 315 316 324 327 326 326 325 322 319 319 325 332 334 333 332 332 335 335 335 335 335 333 330 324 316 309 305 305 305 306 305 302 296 292 288 285 283
204 207 209 212 213 214 214 213 211 208 208 209 210 213 216 219 226 233 245 254 254 260 285 312 322 321 315 317 324 325 323 325 324 320 316 315 319 323 326 325 324 326 329 331 332 333 333 332 330 325 317 309 303 301 301 302 304 303 299 294 289 286 284
205 208 211 213 215 215 216 216 214 210 208 210 212 214 217 221 228 235 246 254 254 259 283 306 318 321 319 318 320 319 319 321 322 320 317 316 316 318 320 320 319 322 325 327 329 331 331 332 330 326 320 314 307 302 299 298 300 301 299 294 290 288 285
207 210 213 216 216 216 217 217 216 212 210 211 214 216 219 224 231 238 248 254 253 258 284 306 317 321 317 315 314 314 315 317 320 321 319 317 315 315 316 316 317 320 323 325 326 328 330 332 330 326 322 317 312 306 300 297 295 296 296 292 289 286 284
210 214 216 216 216 217 218 218 218 215 213 214 216 218 221 226 231 239 250 253 249 257 288 309 321 323 317 313 313 313 316 316 318 320 320 319 317 314 313 314 316 320 322 322 323 325 327 330 328 324 320 317 313 307 302 297 293 292 291 290 289 286 284
215 217 218 218 218 218 219 220 220 218 215 217 219 220 223 226 232 244 251 248 246 263 291 308 321 324 320 317 316 316 316 315 316 319 319 319 317 314 313 315 317 319 319 320 321 322 324 326 325 321 318 317 316 311 305 301 298 295 292 290 289 288 285
219 220 221 221 221 221 221 221 221 219 218 220 221 221 223 227 234 245 247 243 251 274 290 299 312 319 320 319 319 316 313 312 313 316 317 316 315 314 314 316 316 316 316 317 318 320 321 322 321 319 316 316 317 315 311 308 305 301 297 293 291 290 288
221 222 223 224 224 223 222 222 222 219 218 219 219 219 221 226 233 237 238 245 266 282 288 291 302 312 314 315 316 313 310 309 311 312 313 313 314 313 314 314 313 313 313 314 316 318 319 318 318 318 316 314 313 313 312 311 309 307 303 298 296 295 293
227 228 230 231 228 225 223 224 223 220 218 215 213 214 218 226 232 234 239 259 277 283 286 290 298 304 306 309 312 312 310 309 309 310 312 313 313 312 312 312 311 312 312 313 314 315 315 315 315 315 315 314 312 311 308 306 305 304 302 300 299 299 298
236 236 237 235 231 228 226 224 222 220 216 210 206 212 221 226 228 233 249 267 277 285 290 293 296 298 302 309 312 312 311 309 309 311 313 313 313 312 313 313 313 313 313 312 312 312 312 312 312 311 312 312 312 310 306 303 301 300 299 298 298 298 298
236 239 241 238 232 227 223 222 220 215 210 205 208 217 221 222 225 237 257 269 280 289 292 291 291 296 304 311 313 312 311 311 311 312 311 312 313 315 316 316 315 313 311 310 310 310 310 310 309 308 307 308 308 308 306 303 302 302 300 298 297 296 295
231 236 240 237 229 222 217 215 212 205 201 206 214 215 214 217 230 247 263 274 281 282 281 283 290 301 308 311 311 311 313 312 311 311 312 314 317 318 317 316 314 312 309 308 308 309 309 308 307 306 306 307 307 306 304 303 303 304 303 302 299 295 292
224 228 225 217 212 212 211 208 203 200 200 205 209 207 209 224 242 257 267 271 271 272 276 287 300 308 310 309 310 312 313 313 312 313 315 317 318 317 317 316 314 312 309 308 308 308 307 307 307 306 306 306 306 305 304 304 303 304 304 303 301 297 293
188 190 193 196 199 200 198 194 192 193 191 190 195 204 218 239 253 259 261 261 265 273 286 299 306 308 307 309 313 314 314 314 314 314 316 317 317 318 318 317 315 313 311 309 308 308 308 309 309 309 308 308 307 306 306 306 305 304 303 302 300 297 293
154 156 160 164 168 172 172 170 169 173 177 183 197 218 234 251 256 253 255 262 273 286 297 304 305 304 308 314 316 316 315 315 315 317 319 319 319 318 317 317 315 313 311 310 309 310 311 312 312 311 310 311 311 310 309 308 307 305 303 302 301 298 293
139 141 144 144 147 155 162 162 163 170 183 197 217 235 248 254 253 255 264 275 286 295 299 301 303 307 314 317 316 316 317 318 320 321 321 321 320 318 317 316 315 312 311 310 309 310 311 313 312 311 311 313 314 314 313 311 309 306 304 305 306 304 298
131 134 139 142 145 152 161 169 174 184 202 221 237 247 251 253 257 268 279 286 293 298 300 304 310 315 318 318 318 320 321 322 322 322 321 322 320 319 317 316 314 312 311 310 309 310 312 313 313 312 312 314 315 315 316 315 312 309 309 309 310 308 303
133 137 142 146 149 155 167 180 195 213 228 238 245 249 254 261 270 280 287 292 299 303 307 313 317 318 320 322 323 324 323 323 323 322 322 322 321 320 319 317 315 314 313 312 313 314 316 316 314 313 312 313 314 315 315 315 313 312 311 311 310 308 304
138 141 146 151 155 163 181 205 231 242 244 246 252 258 265 272 278 285 293 301 308 311 315 317 318 320 324 325 326 326 325 324 323 322 322 322 322 322 321 320 320 319 319 319 320 320 318 316 314 313 313 313 313 314 314 313 312 310 309 308 307 305 302
138 141 143 146 150 168 210 235 244 246 249 254 259 265 270 275 285 297 307 314 317 317 317 318 320 323 326 327 327 327 327 326 326 325 324 323 323 323 323 324 325 324 323 324 323 321 318 315 313 313 313 312 311 311 311 310 309 309 309 308 305 302 300
134 136 139 144 152 176 218 238 238 238 245 254 261 269 277 288 304 315 318 319 318 317 318 320 322 325 327 327 327 327 329 330 330 328 326 325 325 325 325 325 326 325 323 323 322 319 316 315 314 314 313 312 311 311 310 308 306 306 307 307 304 300 298
136 142 147 152 160 180 208 228 232 235 245 262 273 282 297 314 324 324 321 319 318 319 323 325 326 327 327 326 326 328 330 331 330 329 328 327 326 325 323 321 320 318 317 319 321 320 317 317 318 318 315 313 312 312 311 308 305 303 302 300 299 297 294
145 160 168 165 172 200 209 218 231 245 268 278 278 293 326 335 334 328 323 321 322 325 328 329 329 328 327 326 327 330 331 332 332 332 331 329 327 325 324 321 317 314 313 316 319 319 318 317 319 320 319 315 311 310 309 307 306 304 299 295 293 293 291
150 175 185 204 240 214 210 224 250 287 300 282 277 321 342 343 339 330 325 324 326 329 331 331 330 330 330 330 330 331 332 334 334 333 331 331 331 332 331 329 325 322 319 319 319 320 318 316 318 321 322 320 315 311 308 307 307 306 301 295 291 290 289
182 231 242 246 229 215 222 252 291 311 303 292 312 333 341 342 336 328 326 326 329 332 333 333 334 335 335 333 331 332 335 336 335 334 333 336 338 339 338 336 334 331 330 328 326 324 320 318 319 320 322 321 318 314 311 310 309 308 304 298 292 288 287